This is the latest recevied weather packets stored in our database for station/object WR9A-13. If no packets are shown the sender has not sent any weather packets the latest 1 day(s).
| Time | Temp. | Humidity | Pressure | Rain* | Wind** | Luminosity | Snow |
|---|---|---|---|---|---|---|---|
| 1778006415 | 11.11° C | 78% | 1009.5 hPa | 0 mm | 1.34 m/s, 352° | - | - |
| 1778006131 | 11.11° C | 78% | 1009.5 hPa | 0 mm | 1.79 m/s, 1° | - | - |
| 1778005819 | 11.11° C | 80% | 1009.3 hPa | 0 mm | 1.34 m/s, 16° | - | - |
| 1778005536 | 11.11° C | 80% | 1009.2 hPa | 0 mm | 1.34 m/s, 333° | - | - |
| 1778005224 | 10.56° C | 81% | 1009.2 hPa | 0 mm | 1.34 m/s, 10° | - | - |
| 1778004940 | 10.56° C | 81% | 1009.3 hPa | 0 mm | 1.34 m/s, 3° | - | - |
| 1778004628 | 10.56° C | 82% | 1009.3 hPa | 0 mm | 1.34 m/s, 17° | - | - |
| 1778004325 | 10.56° C | 83% | 1009.3 hPa | 0 mm | 0.89 m/s, 360° | - | - |
| 1778004027 | 10.56° C | 83% | 1009.2 hPa | 0 mm | 0.89 m/s, 11° | - | - |
| 1778003724 | 10.56° C | 82% | 1009.3 hPa | 0 mm | 0.89 m/s, 17° | - | - |
| 1778003441 | 10.56° C | 82% | 1009.3 hPa | 0 mm | 0.45 m/s, 353° | - | - |
| 1778003129 | 10.56° C | 80% | 1009.5 hPa | 0 mm | 0.45 m/s, 32° | - | - |
| 1778002817 | 10.56° C | 82% | 1009.3 hPa | 0 mm | 0.45 m/s, 99° | - | - |
| 1778002534 | 10.56° C | 82% | 1009.4 hPa | 0 mm | 0.45 m/s, 84° | - | - |
| 1778002222 | 10.56° C | 83% | 1009.4 hPa | 0 mm | 0.89 m/s, 84° | - | - |
| 1778001919 | 10.56° C | 83% | 1009.6 hPa | 0 mm | 0.45 m/s, 355° | - | - |
| 1778001626 | 10.56° C | 81% | 1009.6 hPa | 0 mm | 0.45 m/s, 352° | - | - |
| 1778001323 | 10.56° C | 81% | 1009.6 hPa | 0 mm | 0.89 m/s, 346° | - | - |
| 1778001040 | 10.56° C | 81% | 1009.4 hPa | 0 mm | 0.45 m/s, 49° | - | - |
| 1778000728 | 10.56° C | 80% | 1009.4 hPa | 0 mm | 0.45 m/s, 30° | - | - |
| 1778000421 | 10.56° C | 79% | 1009.7 hPa | 0 mm | 0.89 m/s, 12° | - | - |
| 1778000126 | 11.11° C | 79% | 1009.8 hPa | 0 mm | 1.34 m/s, 320° | - | - |
| 1777999823 | 11.11° C | 80% | 1009.6 hPa | 0 mm | 1.34 m/s, 3° | - | - |
| 1777999525 | 11.11° C | 81% | 1009.6 hPa | 0 mm | 0 m/s | - | - |
| 1777999221 | 10.56° C | 81% | 1009.4 hPa | 0 mm | 0 m/s | - | - |
* Rain latest hour (hover to see other rain measurements)
** Current wind speed in m/s (hover to see current wind gust speed)